TimeEST,TemperatureF,Dew PointF,Humidity,Sea Level PressureIn,VisibilityMPH,Wind Direction,Wind SpeedMPH,Gust SpeedMPH,PrecipitationIn,Events,Conditions,WindDirDegrees,DateUTC
12:53 AM,39.9,36.0,86,30.23,10.0,North,6.9,-,N/A,,Overcast,350,2012-11-20 05:53:00
1:48 AM,37.4,35.6,93,30.21,10.0,North,3.5,-,N/A,,Scattered Clouds,360,2012-11-20 06:48:00
1:53 AM,37.9,35.1,89,30.21,10.0,North,4.6,-,N/A,,Partly Cloudy,350,2012-11-20 06:53:00
2:53 AM,37.0,34.0,89,30.20,10.0,NNW,3.5,-,N/A,,Clear,340,2012-11-20 07:53:00
3:53 AM,36.0,34.0,93,30.17,10.0,North,4.6,-,N/A,,Clear,350,2012-11-20 08:53:00
4:53 AM,36.0,34.0,93,30.17,7.0,NNW,4.6,-,N/A,,Clear,340,2012-11-20 09:53:00
5:53 AM,35.1,34.0,96,30.17,6.0,NNW,4.6,-,N/A,,Clear,340,2012-11-20 10:53:00
6:53 AM,34.0,33.1,96,30.18,3.0,NNW,4.6,-,N/A,,Scattered Clouds,340,2012-11-20 11:53:00
7:53 AM,37.0,35.1,93,30.18,5.0,NNW,3.5,-,N/A,,Clear,340,2012-11-20 12:53:00
8:53 AM,41.0,37.0,86,30.18,10.0,Calm,Calm,-,N/A,,Clear,0,2012-11-20 13:53:00
9:53 AM,46.0,37.9,73,30.18,10.0,North,5.8,-,N/A,,Mostly Cloudy,360,2012-11-20 14:53:00
10:53 AM,48.0,37.9,68,30.16,10.0,NNE,8.1,-,N/A,,Mostly Cloudy,30,2012-11-20 15:53:00
11:53 AM,51.1,37.0,59,30.14,10.0,NE,11.5,16.1,N/A,,Overcast,50,2012-11-20 16:53:00
12:30 PM,51.8,37.4,58,30.13,10.0,NE,9.2,-,N/A,,Scattered Clouds,40,2012-11-20 17:30:00
12:53 PM,51.1,37.0,59,30.13,10.0,NE,11.5,-,N/A,,Partly Cloudy,50,2012-11-20 17:53:00
1:53 PM,51.1,36.0,56,30.11,10.0,NNE,11.5,17.3,N/A,,Scattered Clouds,30,2012-11-20 18:53:00
2:53 PM,48.9,36.0,61,30.12,10.0,NNE,9.2,19.6,N/A,,Scattered Clouds,30,2012-11-20 19:53:00
3:53 PM,46.9,36.0,66,30.13,10.0,North,5.8,-,N/A,,Mostly Cloudy,10,2012-11-20 20:53:00
4:04 PM,46.4,35.6,66,30.12,10.0,NNE,4.6,-,N/A,,Scattered Clouds,20,2012-11-20 21:04:00
4:53 PM,44.1,35.1,71,30.13,10.0,North,3.5,-,N/A,,Clear,10,2012-11-20 21:53:00
5:53 PM,39.9,35.1,83,30.14,10.0,NNW,3.5,-,N/A,,Clear,340,2012-11-20 22:53:00
6:53 PM,39.9,35.1,83,30.14,10.0,North,3.5,-,N/A,,Clear,350,2012-11-20 23:53:00
7:53 PM,39.0,35.1,86,30.14,10.0,North,3.5,-,N/A,,Clear,350,2012-11-21 00:53:00
8:53 PM,39.0,35.1,86,30.14,10.0,Calm,Calm,-,N/A,,Clear,0,2012-11-21 01:53:00
9:53 PM,37.9,35.1,89,30.14,10.0,Calm,Calm,-,N/A,,Clear,0,2012-11-21 02:53:00
10:53 PM,39.0,35.1,86,30.13,10.0,NNW,3.5,-,N/A,,Clear,340,2012-11-21 03:53:00
11:53 PM,35.1,33.1,92,30.14,10.0,Calm,Calm,-,N/A,,Clear,0,2012-11-21 04:53:00